SCP
0 0 0 0 0 0 0 0 0 0 0 0 0 0 0 0 0 -0 0 0 0 0 0 0 0 0 0 0 0 -0 -0 -0 0 0 0 0 0 0 0 0 0 0 0 0
0 0 0 0 0 0 0 0 0 0 0 0 0 0 0 0 0 -0 -0 -0 -0 -0 -0 -0 0 0 0 0 0 0 -0 0 0 0 0 0 0 0 0 0 0 0 0 0
0 0 0 0 0 0 0 0 0 0 0 0 0 0 0 0 -0 -0 -0 -0 -0 -0 0 0 0 0 0 0 0 0 -0 -0 0 0 0 0 0 0 0 0 0 0 0 0
0 0 0 0 0 0 0 0 0 0 0 0 0 0 0 0 -0 -0 -0 -0 0 0 0 0 0 0 0 0 0 -0 0 0 0 0 0 0 0 0 0 0 0 0 0 0
0 0 0 0 0 0 0 0 0 0 0 0 0 0 -0 -0 0 0 -0 0 -0 -0 -0 -0 0 0 0 0 0 0 -0 0 0 0 0 0 0 0 0 0 0 0 0 0
0 0 0 0 0 0 0 -0 0 0 -0 0 0 -0 -0 0 0 0 0 0 0 0 0 0 0 0 0 0 0 0 -0 0 0 0 0 0 0 0 -0 -0 -0 0 0 0
0 0 0 0 0 -0 -0 -0 -0 -0 -0 -0 -0 0 -0 -0 0 0 0 0 0 0 0 0 0 0 0 0 0 -0 0 0 0 0 -0 0 -0 -0 -0 0 0 0 0 0
0 0 0 0 -0 -0 -0 -0 0 0 -0 -0 -0 -0 -0 -0 -0 -0 -0 0 0 0 0 0 0 0 0 0 0 -0 0 0 0 0 0 0 -0 0 0 0 0 0 0 0
0 0 0 -0 0 0 0 0 -0 -0 -0 -0 -0 -0 -0 -0 -0 0 0 0 0 0 0 0 0 -0 0 0 -0 0 0 0 -0 -0 -0 -0 0 0 0 0 -0 0 0 0
0 0 0 0 0 0 0 -0 -0 -0 -0 -0 -0 -0 0 0 0 0 0 0 0 0 0 0 0 -0 0 0 0 0 0 0 0 0 -0 0 0 0 0 0 0 0 0 0
0 0 -0 0 0 0 0 0 0 -0 -0 -0 0 0 0 0 0 0 0 -0 0 0 0 0 0 0 0 0 0 0 0 0 0 0 0 0 0 0 0 0 0 0 0 0
0 0 0 0 0 -0 -0 0 0 -0 -0 0 0 -0 -0 0 0 0 0 0 0 -0 0 0 0 0 0 0 0 0 0 0 0 0 0 0 0 0 0 0 0 0 0 0
0 0 0 0 0 0 -0 -0 -0 -0 -0 0 -0 -0 -0 -0 0 -0 0 0 0 0 0 0 0 0 0 0 0 0 0 0 0 0 0 0 0 0 0 0 0 0 0 0
0 0 0 0 -0 0 0 0 0 0 0 -0 0 -0 -0 -0 -0 -0 -0 0 0 0 0 0 0 0 0 0 0 0 0 0 0 0 0 0 0 0 0 0 0 0 0 0
0 0 0 0 0 0 0 0 -0 -0 0 -0 -0 -0 -0 -0 0 0 0 0 0 0 0 0 0 0 0 0 0 0 0 0 0 0 0 0 0 0 0 0 0 0 0 0
0 0 0 0 0 0 -0 -0 -0 -0 -0 0 0 0 0 0 0 0 0 0 0 0 0 0 0 0 0 0 0 0 0 0 0 0 0 0 0 0 0 0 0 0 0 0
-0 -0 -0 -0 0 -0 0 0 -0 0 0 0 0 0 0 0 0 0 0 0 0 0 0 0 0 0 0 0 0 0 0 0 0 0 0 0 0 0 0 0 0 0 0 0
0 0 0 0 -0 0 0 -0 0 0 0 0 0 0 0 0 0 0 0 0 0 0 0 0 0 0 0 0 0 0 0 0 0 0 0 0 0 0 0 0 0 0 0 0
0 0 0 0 0 -0 0 0 0 0 0 0 0 0 0 0 0 0 0 0 0 0 0 0 0 0 0 0 0 0 0 0 0 0 0 0 0 0 0 0 0 0 0 0
0 0 -0 0 0 0 -0 0 0 0 0 0 0 0 0 0 0 0 0 0 0 0 0 0 0 0 0 0 0 0 0 0 0 0 0 0 0 0 0 0 0 0 0 0
0 0 0 0 0 -0 0 0 0 0 0 0 0 0 0 0 0 0 0 0 0 0 0 0 0 0 0 0 0 0 0 0 0 0 0 0 0 0 0 0 0 0 0 0
0 -0 0 0 0 0 0 0 0 0 0 0 0 0 0 0 0 0 0 0 0 0 0 0 0 0 0 0 0 0 0 0 0 0 0 0 0 0 0 0 0 0 0 0
-0 0 0 0 0 0 0 0 0 0 0 0 0 0 0 0 0 0 0 0 0 0 0 0 0 0 0 0 0 0 0 0 0 0 0 0 0 0 0 0 0 0 0 0
-0 0 0 0 0 0 0 0 0 0 0 0 0 0 0 0 0 0 0 0 0 0 0 0 0 0 0 0 0 0 0 0 0 0 0 0 0 0 0 0 0 0 0 -0
-0 0 0 0 0 0 0 0 0 0 0 0 0 0 0 0 0 0 0 0 0 0 0 0 0 0 0 0 0 0 0 0 0 0 0 0 0 0 0 0 0 0 -0 -0
0 0 0 0 0 0 0 0 0 0 0 0 0 0 0 0 0 0 0 0 0 0 0 0 0 0 0 0 0 0 0 0 0 0 0 0 0 0 0 0 0 0 -0 -0
0 0 0 0 0 0 0 0 0 0 0 0 0 0 0 0 0 0 0 0 0 0 0 0 0 0 0 0 0 0 0 0 0 0 0 0 0 0 0 0 -0 -0 -0 -0
Wind_Speed_500mb
25 36 31 34 39 28 27 33 19 41 32 36 26 25 16 24 29 41 51 59 57 52 41 29 33 32 33 30 33 37 39 34 29 22 24 22 20 12 15 20 24 32 38 58
19 29 29 28 39 39 34 34 27 35 40 13 16 15 23 31 37 44 50 57 61 62 56 48 42 39 43 38 35 35 41 42 38 23 20 22 13 11 16 19 30 38 48 60
9 12 19 19 20 17 8 10 10 13 14 6 8 11 27 41 46 53 53 54 51 48 35 27 23 26 29 32 37 36 40 35 36 23 17 14 10 12 17 29 38 46 57 58
8 8 6 12 9 5 10 11 10 21 8 9 14 36 49 57 58 58 51 59 41 39 50 42 25 23 26 23 26 30 35 32 25 21 17 19 14 19 29 36 47 58 58 57
6 7 19 11 7 9 12 22 21 14 3 16 32 30 53 60 54 52 61 60 65 70 74 75 68 50 41 37 24 25 34 23 16 22 24 25 28 35 41 51 60 60 62 67
3 9 8 8 5 34 10 14 9 12 19 16 29 26 30 62 67 64 71 72 74 63 60 60 57 52 46 46 36 33 32 17 16 22 29 35 40 47 58 62 63 65 66 58
12 10 14 5 26 20 8 8 41 39 35 39 24 43 84 70 76 77 73 69 63 59 59 55 46 42 46 49 43 35 21 16 21 28 34 44 51 57 65 69 70 63 59 52
6 6 14 11 36 6 21 57 44 36 45 58 64 67 67 75 70 71 74 73 67 67 62 51 42 41 48 50 34 22 19 22 32 39 50 53 57 72 72 67 67 71 63 59
11 11 22 67 40 50 47 31 42 56 59 60 62 70 73 74 76 76 66 71 66 58 56 49 43 42 51 59 36 27 32 40 41 46 57 62 75 74 68 67 76 73 65 59
8 12 22 42 56 39 37 56 62 55 58 64 71 68 74 73 69 71 78 72 60 51 44 39 37 39 40 35 39 46 52 50 51 58 68 73 72 70 75 78 73 65 57 55
13 30 38 46 31 54 68 61 60 61 66 67 66 65 69 67 72 78 71 53 46 43 45 41 37 35 34 45 55 60 60 59 63 68 71 70 69 64 65 67 60 54 56 51
13 44 43 34 61 64 60 53 61 69 68 65 57 68 61 72 69 61 36 25 13 42 51 46 45 47 47 57 57 64 67 69 71 70 70 72 68 70 62 54 53 51 47 45
21 54 53 69 65 54 55 67 62 64 64 60 64 48 63 56 50 20 9 26 42 53 60 63 58 62 68 51 59 67 71 73 73 77 78 82 78 76 73 63 56 44 41 41
54 50 56 50 64 66 69 60 65 64 56 46 43 49 39 36 19 23 35 44 58 68 71 62 68 69 57 62 65 69 77 81 82 85 88 81 80 81 72 69 68 56 50 57
50 55 56 60 60 57 66 59 57 51 46 38 38 32 25 12 18 27 42 49 60 65 64 65 67 68 64 63 68 81 86 87 92 88 85 87 82 79 78 71 68 71 69 62
59 60 55 50 59 55 63 51 42 42 36 32 28 14 14 25 33 39 38 47 59 66 65 67 69 66 63 69 81 92 85 91 96 99 92 84 83 83 77 74 75 73 65 57
53 53 50 59 48 58 46 36 26 29 24 21 10 13 33 41 43 43 49 51 55 58 60 62 66 62 63 71 87 88 89 98 96 94 88 90 90 83 78 74 69 63 56 43
49 43 59 48 51 42 32 24 21 18 13 3 5 16 49 44 52 49 48 53 54 55 57 57 57 56 59 73 92 95 102 99 94 94 95 91 82 75 71 66 61 55 49 37
46 54 51 45 34 31 18 22 16 9 11 14 15 38 49 53 52 49 49 49 52 59 56 52 48 56 68 82 90 100 101 94 94 99 94 85 78 71 66 61 57 50 42 37
53 47 43 30 27 22 16 15 13 16 23 20 33 47 56 54 53 54 50 52 49 48 58 56 63 76 90 96 93 91 91 92 100 97 88 80 74 67 59 55 52 47 41 38
44 45 30 20 24 18 17 13 17 23 26 28 39 46 53 54 51 49 53 60 56 52 52 57 73 79 84 90 92 91 92 96 95 89 80 74 68 61 57 53 49 44 41 41
42 32 23 29 18 23 16 19 22 22 26 32 37 42 47 50 50 53 53 57 57 55 61 79 87 79 85 88 86 90 95 94 88 82 75 67 61 59 55 51 47 45 46 46
32 18 21 31 19 16 21 26 25 26 34 35 36 40 44 47 52 60 65 57 56 59 76 80 76 76 84 80 84 89 88 84 79 73 66 59 57 55 53 51 50 49 46 45
23 15 18 19 22 20 22 22 26 31 33 32 34 33 40 51 58 57 63 64 81 79 76 73 73 76 75 79 84 85 82 77 68 61 58 56 55 54 53 51 48 45 45 44
16 23 25 21 24 29 27 26 31 31 33 37 38 39 42 46 59 59 77 88 76 70 67 60 61 67 74 78 78 75 68 59 55 54 53 52 53 55 52 49 46 45 43 43
27 26 24 20 36 28 30 34 38 38 40 45 42 42 45 50 57 69 92 77 75 64 60 58 61 68 70 69 64 58 51 49 50 50 50 51 51 51 50 48 46 44 42 42
34 26 28 28 27 33 33 30 37 40 42 49 51 50 49 52 61 88 89 72 67 65 59 58 62 62 59 54 47 46 47 49 48 47 47 48 49 50 48 47 46 42 40 40
Wind_Direction_500mb
261 268 270 261 267 249 220 237 233 277 271 280 280 264 271 299 321 334 336 330 322 316 320 320 316 312 309 309 312 325 335 348 323 303 293 298 295 266 225 217 213 200 194 182
279 268 265 271 270 271 256 251 253 261 267 273 302 231 274 291 318 319 313 319 316 305 304 299 293 297 298 306 316 316 316 315 311 289 295 291 291 265 215 222 212 196 188 175
268 350 318 290 264 260 234 217 217 242 259 215 263 281 297 303 307 302 309 312 304 300 302 314 284 272 283 297 307 312 312 301 286 264 268 233 253 236 208 188 187 182 157 149
284 311 258 239 353 28 336 276 322 279 269 241 268 297 297 299 301 307 307 308 295 287 290 291 294 297 300 296 302 311 303 287 281 250 240 220 229 197 183 174 163 154 147 139
271 264 279 301 40 5 3 300 266 263 270 282 304 308 300 309 306 301 302 294 292 290 285 283 279 268 276 281 300 305 287 285 263 241 240 216 205 180 176 171 154 146 139 132
218 262 270 227 257 328 228 286 61 1 314 301 312 301 300 306 297 294 293 288 290 289 283 279 278 264 257 264 273 286 284 251 235 233 225 205 187 175 167 158 144 134 129 127
259 255 278 180 339 334 73 276 314 300 297 303 291 288 299 299 294 296 293 294 295 289 283 277 268 256 239 244 251 271 271 240 214 214 197 185 175 166 155 148 138 129 122 117
326 274 279 18 351 11 307 301 287 304 301 299 297 300 299 297 295 295 297 296 293 285 280 277 264 244 225 229 232 251 234 217 198 188 175 168 163 147 145 144 134 125 120 118
213 238 297 313 297 299 307 292 306 301 302 300 298 300 300 298 299 298 295 291 289 278 271 262 253 235 226 222 230 218 213 196 183 169 163 157 151 147 145 136 129 124 125 126
316 264 273 297 303 306 319 310 305 301 303 305 299 300 299 300 300 301 302 298 290 271 254 237 222 219 218 214 212 203 190 176 169 161 154 152 148 145 137 134 130 128 126 128
253 279 307 302 311 317 312 312 307 305 307 304 305 302 304 302 306 309 312 306 283 247 221 204 195 187 179 176 187 185 173 164 157 155 153 148 136 133 139 137 137 140 134 122
285 301 295 301 313 310 307 304 308 312 310 311 308 308 308 308 312 324 319 312 300 171 176 167 157 158 172 181 184 177 161 156 155 150 138 134 137 137 133 133 134 130 117 109
289 299 292 305 312 311 308 308 309 311 311 308 311 306 308 313 330 351 67 104 120 136 137 141 147 161 172 176 175 168 159 153 149 141 136 134 133 131 126 127 125 115 114 120
316 310 309 313 309 314 312 311 315 313 310 311 304 308 312 328 37 89 101 109 119 127 132 140 154 159 169 171 167 160 151 148 142 141 138 134 134 132 132 128 124 119 120 123
319 320 307 310 312 312 315 319 321 319 321 316 312 316 328 19 83 106 111 117 123 131 140 148 156 158 164 164 162 152 147 145 142 139 133 136 135 134 131 127 124 127 129 129
321 320 318 312 315 319 322 325 326 324 322 317 319 329 4 112 120 119 120 129 137 140 149 155 152 155 161 161 153 146 146 143 140 137 140 138 137 136 131 129 133 137 135 133
319 317 323 322 323 326 325 326 326 324 320 315 331 2 112 136 133 131 134 140 141 144 148 152 149 154 156 159 150 144 144 142 140 139 139 139 140 139 136 134 136 136 132 129
325 318 323 319 326 327 329 338 336 327 321 359 82 104 135 150 140 137 139 140 139 139 143 146 145 149 154 152 149 143 141 140 140 142 143 143 144 143 141 139 138 137 134 134
332 330 330 334 341 341 337 343 346 1 108 100 122 128 138 141 143 144 144 139 137 136 138 139 137 140 145 146 144 144 142 142 144 145 145 144 143 143 141 141 143 142 140 135
339 336 340 348 3 20 29 16 40 100 100 121 136 139 136 139 146 144 144 137 135 131 140 138 133 141 147 145 147 147 145 145 147 149 150 149 149 151 151 151 148 142 139 133
345 344 355 10 34 43 42 53 85 107 120 136 143 138 135 139 144 146 135 126 131 133 136 140 144 149 148 146 149 149 148 148 150 151 151 151 151 151 152 152 149 143 139 135
348 358 17 21 33 54 76 76 87 110 132 134 137 134 135 135 138 136 130 127 136 141 142 143 145 151 148 151 150 151 151 152 152 152 153 153 154 155 155 150 145 142 136 136
357 27 64 32 56 72 87 97 106 108 128 131 135 134 133 132 134 129 125 133 136 139 142 143 142 149 151 153 154 155 154 154 154 154 153 155 155 155 150 146 142 139 141 140
11 54 39 76 85 94 100 101 103 113 124 125 128 133 135 136 131 131 127 129 135 136 139 141 148 150 154 155 156 157 157 156 154 154 154 155 154 150 148 146 143 144 145 139
52 57 63 108 96 100 106 113 113 114 114 120 126 131 139 140 130 129 128 133 134 138 139 145 150 155 155 154 155 156 156 155 155 155 156 156 155 154 151 146 146 148 144 138
84 80 76 99 118 86 113 123 129 122 122 127 126 131 132 133 127 130 134 136 140 140 142 148 152 152 152 155 156 156 156 157 157 159 158 158 159 157 152 148 146 146 144 138
90 96 89 100 123 114 105 117 123 128 127 131 129 129 132 137 136 136 136 129 137 142 146 148 152 155 156 157 157 159 158 156 160 161 161 162 164 159 154 151 147 147 145 138
Wind_Speed_850mb
25 36 31 34 39 28 27 33 19 41 32 36 26 25 16 24 29 41 51 59 57 52 41 29 33 32 33 30 33 37 39 34 29 22 24 22 20 12 15 20 24 32 38 58
19 29 29 28 39 39 34 34 27 35 40 13 16 15 23 31 37 44 50 57 61 62 56 48 42 39 43 38 35 35 41 42 38 23 20 22 13 11 16 19 30 38 48 60
9 12 19 19 20 17 8 10 10 13 14 6 8 11 27 41 46 53 53 54 51 48 35 27 23 26 29 32 37 36 40 35 36 23 17 14 10 12 17 29 38 46 57 58
8 8 6 12 9 5 10 11 10 21 8 9 14 36 49 57 58 58 51 59 41 39 50 42 25 23 26 23 26 30 35 32 25 21 17 19 14 19 29 36 47 58 58 57
6 7 19 11 7 9 12 22 21 14 3 16 32 30 53 60 54 52 61 60 65 70 74 75 68 50 41 37 24 25 34 23 16 22 24 25 28 35 41 51 60 60 62 67
3 9 8 8 5 34 10 14 9 12 19 16 29 26 30 62 67 64 71 72 74 63 60 60 57 52 46 46 36 33 32 17 16 22 29 35 40 47 58 62 63 65 66 58
12 10 14 5 26 20 8 8 41 39 35 39 24 43 84 70 76 77 73 69 63 59 59 55 46 42 46 49 43 35 21 16 21 28 34 44 51 57 65 69 70 63 59 52
6 6 14 11 36 6 21 57 44 36 45 58 64 67 67 75 70 71 74 73 67 67 62 51 42 41 48 50 34 22 19 22 32 39 50 53 57 72 72 67 67 71 63 59
11 11 22 67 40 50 47 31 42 56 59 60 62 70 73 74 76 76 66 71 66 58 56 49 43 42 51 59 36 27 32 40 41 46 57 62 75 74 68 67 76 73 65 59
8 12 22 42 56 39 37 56 62 55 58 64 71 68 74 73 69 71 78 72 60 51 44 39 37 39 40 35 39 46 52 50 51 58 68 73 72 70 75 78 73 65 57 55
13 30 38 46 31 54 68 61 60 61 66 67 66 65 69 67 72 78 71 53 46 43 45 41 37 35 34 45 55 60 60 59 63 68 71 70 69 64 65 67 60 54 56 51
13 44 43 34 61 64 60 53 61 69 68 65 57 68 61 72 69 61 36 25 13 42 51 46 45 47 47 57 57 64 67 69 71 70 70 72 68 70 62 54 53 51 47 45
21 54 53 69 65 54 55 67 62 64 64 60 64 48 63 56 50 20 9 26 42 53 60 63 58 62 68 51 59 67 71 73 73 77 78 82 78 76 73 63 56 44 41 41
54 50 56 50 64 66 69 60 65 64 56 46 43 49 39 36 19 23 35 44 58 68 71 62 68 69 57 62 65 69 77 81 82 85 88 81 80 81 72 69 68 56 50 57
50 55 56 60 60 57 66 59 57 51 46 38 38 32 25 12 18 27 42 49 60 65 64 65 67 68 64 63 68 81 86 87 92 88 85 87 82 79 78 71 68 71 69 62
59 60 55 50 59 55 63 51 42 42 36 32 28 14 14 25 33 39 38 47 59 66 65 67 69 66 63 69 81 92 85 91 96 99 92 84 83 83 77 74 75 73 65 57
53 53 50 59 48 58 46 36 26 29 24 21 10 13 33 41 43 43 49 51 55 58 60 62 66 62 63 71 87 88 89 98 96 94 88 90 90 83 78 74 69 63 56 43
49 43 59 48 51 42 32 24 21 18 13 3 5 16 49 44 52 49 48 53 54 55 57 57 57 56 59 73 92 95 102 99 94 94 95 91 82 75 71 66 61 55 49 37
46 54 51 45 34 31 18 22 16 9 11 14 15 38 49 53 52 49 49 49 52 59 56 52 48 56 68 82 90 100 101 94 94 99 94 85 78 71 66 61 57 50 42 37
53 47 43 30 27 22 16 15 13 16 23 20 33 47 56 54 53 54 50 52 49 48 58 56 63 76 90 96 93 91 91 92 100 97 88 80 74 67 59 55 52 47 41 38
44 45 30 20 24 18 17 13 17 23 26 28 39 46 53 54 51 49 53 60 56 52 52 57 73 79 84 90 92 91 92 96 95 89 80 74 68 61 57 53 49 44 41 41
42 32 23 29 18 23 16 19 22 22 26 32 37 42 47 50 50 53 53 57 57 55 61 79 87 79 85 88 86 90 95 94 88 82 75 67 61 59 55 51 47 45 46 46
32 18 21 31 19 16 21 26 25 26 34 35 36 40 44 47 52 60 65 57 56 59 76 80 76 76 84 80 84 89 88 84 79 73 66 59 57 55 53 51 50 49 46 45
23 15 18 19 22 20 22 22 26 31 33 32 34 33 40 51 58 57 63 64 81 79 76 73 73 76 75 79 84 85 82 77 68 61 58 56 55 54 53 51 48 45 45 44
16 23 25 21 24 29 27 26 31 31 33 37 38 39 42 46 59 59 77 88 76 70 67 60 61 67 74 78 78 75 68 59 55 54 53 52 53 55 52 49 46 45 43 43
27 26 24 20 36 28 30 34 38 38 40 45 42 42 45 50 57 69 92 77 75 64 60 58 61 68 70 69 64 58 51 49 50 50 50 51 51 51 50 48 46 44 42 42
34 26 28 28 27 33 33 30 37 40 42 49 51 50 49 52 61 88 89 72 67 65 59 58 62 62 59 54 47 46 47 49 48 47 47 48 49 50 48 47 46 42 40 40
Wind_Direction_850mb
261 268 270 261 267 249 220 237 233 277 271 280 280 264 271 299 321 334 336 330 322 316 320 320 316 312 309 309 312 325 335 348 323 303 293 298 295 266 225 217 213 200 194 182
279 268 265 271 270 271 256 251 253 261 267 273 302 231 274 291 318 319 313 319 316 305 304 299 293 297 298 306 316 316 316 315 311 289 295 291 291 265 215 222 212 196 188 175
268 350 318 290 264 260 234 217 217 242 259 215 263 281 297 303 307 302 309 312 304 300 302 314 284 272 283 297 307 312 312 301 286 264 268 233 253 236 208 188 187 182 157 149
284 311 258 239 353 28 336 276 322 279 269 241 268 297 297 299 301 307 307 308 295 287 290 291 294 297 300 296 302 311 303 287 281 250 240 220 229 197 183 174 163 154 147 139
271 264 279 301 40 5 3 300 266 263 270 282 304 308 300 309 306 301 302 294 292 290 285 283 279 268 276 281 300 305 287 285 263 241 240 216 205 180 176 171 154 146 139 132
218 262 270 227 257 328 228 286 61 1 314 301 312 301 300 306 297 294 293 288 290 289 283 279 278 264 257 264 273 286 284 251 235 233 225 205 187 175 167 158 144 134 129 127
259 255 278 180 339 334 73 276 314 300 297 303 291 288 299 299 294 296 293 294 295 289 283 277 268 256 239 244 251 271 271 240 214 214 197 185 175 166 155 148 138 129 122 117
326 274 279 18 351 11 307 301 287 304 301 299 297 300 299 297 295 295 297 296 293 285 280 277 264 244 225 229 232 251 234 217 198 188 175 168 163 147 145 144 134 125 120 118
213 238 297 313 297 299 307 292 306 301 302 300 298 300 300 298 299 298 295 291 289 278 271 262 253 235 226 222 230 218 213 196 183 169 163 157 151 147 145 136 129 124 125 126
316 264 273 297 303 306 319 310 305 301 303 305 299 300 299 300 300 301 302 298 290 271 254 237 222 219 218 214 212 203 190 176 169 161 154 152 148 145 137 134 130 128 126 128
253 279 307 302 311 317 312 312 307 305 307 304 305 302 304 302 306 309 312 306 283 247 221 204 195 187 179 176 187 185 173 164 157 155 153 148 136 133 139 137 137 140 134 122
285 301 295 301 313 310 307 304 308 312 310 311 308 308 308 308 312 324 319 312 300 171 176 167 157 158 172 181 184 177 161 156 155 150 138 134 137 137 133 133 134 130 117 109
289 299 292 305 312 311 308 308 309 311 311 308 311 306 308 313 330 351 67 104 120 136 137 141 147 161 172 176 175 168 159 153 149 141 136 134 133 131 126 127 125 115 114 120
316 310 309 313 309 314 312 311 315 313 310 311 304 308 312 328 37 89 101 109 119 127 132 140 154 159 169 171 167 160 151 148 142 141 138 134 134 132 132 128 124 119 120 123
319 320 307 310 312 312 315 319 321 319 321 316 312 316 328 19 83 106 111 117 123 131 140 148 156 158 164 164 162 152 147 145 142 139 133 136 135 134 131 127 124 127 129 129
321 320 318 312 315 319 322 325 326 324 322 317 319 329 4 112 120 119 120 129 137 140 149 155 152 155 161 161 153 146 146 143 140 137 140 138 137 136 131 129 133 137 135 133
319 317 323 322 323 326 325 326 326 324 320 315 331 2 112 136 133 131 134 140 141 144 148 152 149 154 156 159 150 144 144 142 140 139 139 139 140 139 136 134 136 136 132 129
325 318 323 319 326 327 329 338 336 327 321 359 82 104 135 150 140 137 139 140 139 139 143 146 145 149 154 152 149 143 141 140 140 142 143 143 144 143 141 139 138 137 134 134
332 330 330 334 341 341 337 343 346 1 108 100 122 128 138 141 143 144 144 139 137 136 138 139 137 140 145 146 144 144 142 142 144 145 145 144 143 143 141 141 143 142 140 135
339 336 340 348 3 20 29 16 40 100 100 121 136 139 136 139 146 144 144 137 135 131 140 138 133 141 147 145 147 147 145 145 147 149 150 149 149 151 151 151 148 142 139 133
345 344 355 10 34 43 42 53 85 107 120 136 143 138 135 139 144 146 135 126 131 133 136 140 144 149 148 146 149 149 148 148 150 151 151 151 151 151 152 152 149 143 139 135
348 358 17 21 33 54 76 76 87 110 132 134 137 134 135 135 138 136 130 127 136 141 142 143 145 151 148 151 150 151 151 152 152 152 153 153 154 155 155 150 145 142 136 136
357 27 64 32 56 72 87 97 106 108 128 131 135 134 133 132 134 129 125 133 136 139 142 143 142 149 151 153 154 155 154 154 154 154 153 155 155 155 150 146 142 139 141 140
11 54 39 76 85 94 100 101 103 113 124 125 128 133 135 136 131 131 127 129 135 136 139 141 148 150 154 155 156 157 157 156 154 154 154 155 154 150 148 146 143 144 145 139
52 57 63 108 96 100 106 113 113 114 114 120 126 131 139 140 130 129 128 133 134 138 139 145 150 155 155 154 155 156 156 155 155 155 156 156 155 154 151 146 146 148 144 138
84 80 76 99 118 86 113 123 129 122 122 127 126 131 132 133 127 130 134 136 140 140 142 148 152 152 152 155 156 156 156 157 157 159 158 158 159 157 152 148 146 146 144 138
90 96 89 100 123 114 105 117 123 128 127 131 129 129 132 137 136 136 136 129 137 142 146 148 152 155 156 157 157 159 158 156 160 161 161 162 164 159 154 151 147 147 145 138